• In Schweiz
  • Länderverzeichnis
  • Für 7 Tage
  • Wassertemperatur
  • Satellitenkarten
  • Wetterkarte
  • Widgets
  • user-avatar
    Anmelden

    Stündliche Wetter Mbandaka

    Heute, 21 September, Freitag

    Zeit Temperatur Niederschläge Wind Luftdruck Luftfeuchtigkeit
    00:00 +25°C° 0 mm 0 m/S 729 mmHg 73%
    01:00 +24°C° 0 mm 0 m/S 729 mmHg 75%
    02:00 +24°C° 0 mm 0 m/S 729 mmHg 76%
    03:00 +24°C° 0 mm 0 m/S 729 mmHg 78%
    04:00 +24°C° 0 mm 0 m/S 729 mmHg 79%
    05:00 +25°C° 0 mm 0 m/S 729 mmHg 76%
    06:00 +26°C° 0 mm 0 m/S 730 mmHg 73%
    07:00 +26°C° 0 mm 0 m/S 730 mmHg 70%
    08:00 +29°C° 0.2 mm 0 m/S 731 mmHg 62%
    09:00 +33°C° 0.2 mm 1 m/S 731 mmHg 55%
    10:00 +36°C° 0.2 mm 1 m/S 732 mmHg 47%
    11:00 +35°C° 0.5 mm 1 m/S 731 mmHg 47%
    12:00 +36°C° 0.5 mm 2 m/S 730 mmHg 47%
    13:00 +36°C° 0.5 mm 2 m/S 729 mmHg 47%
    14:00 +36°C° 0 mm 2 m/S 728 mmHg 45%
    15:00 +36°C° 0 mm 2 m/S 728 mmHg 43%
    16:00 +36°C° 0 mm 2 m/S 727 mmHg 42%
    17:00 +33°C° 0 mm 1 m/S 728 mmHg 49%
    18:00 +31°C° 0 mm 1 m/S 728 mmHg 56%
    19:00 +28°C° 0 mm 1 m/S 728 mmHg 63%
    20:00 +28°C° 0 mm 1 m/S 728 mmHg 64%
    21:00 +27°C° 0 mm 1 m/S 729 mmHg 66%
    22:00 +26°C° 0 mm 1 m/S 729 mmHg 67%
    23:00 +26°C° 0 mm 1 m/S 729 mmHg 68%

    Morgen, 22 September, Samstag

    Zeit Temperatur Niederschläge Wind Luftdruck Luftfeuchtigkeit
    00:00 +24°C° 0 mm 0 m/S 729 mmHg 68%
    01:00 +24°C° 0 mm 0 m/S 729 mmHg 68%
    02:00 +23°C° 0.1 mm 0 m/S 729 mmHg 71%
    03:00 +23°C° 0.1 mm 0 m/S 729 mmHg 75%
    04:00 +24°C° 0.1 mm 1 m/S 728 mmHg 78%
    05:00 +25°C° 0.3 mm 1 m/S 729 mmHg 80%
    06:00 +25°C° 0.3 mm 1 m/S 730 mmHg 83%
    07:00 +25°C° 0.3 mm 1 m/S 730 mmHg 86%
    08:00 +28°C° 0.1 mm 1 m/S 731 mmHg 73%
    09:00 +32°C° 0.1 mm 1 m/S 731 mmHg 61%
    10:00 +35°C° 0.1 mm 1 m/S 732 mmHg 48%
    11:00 +36°C° 0 mm 1 m/S 731 mmHg 43%
    12:00 +39°C° 0 mm 1 m/S 730 mmHg 38%
    13:00 +41°C° 0 mm 1 m/S 729 mmHg 33%
    14:00 +37°C° 0 mm 1 m/S 728 mmHg 39%
    15:00 +35°C° 0 mm 1 m/S 728 mmHg 46%
    16:00 +33°C° 0 mm 1 m/S 727 mmHg 53%
    17:00 +31°C° 1.6 mm 1 m/S 728 mmHg 64%
    18:00 +29°C° 1.6 mm 1 m/S 728 mmHg 76%
    19:00 +27°C° 1.6 mm 1 m/S 728 mmHg 87%
    20:00 +26°C° 4.2 mm 1 m/S 729 mmHg 90%
    21:00 +26°C° 4.2 mm 1 m/S 729 mmHg 92%
    22:00 +26°C° 4.2 mm 1 m/S 730 mmHg 94%
    23:00 +25°C° 3 mm 1 m/S 730 mmHg 95%

    übermorgen, 23 September, Sonntag

    Zeit Temperatur Niederschläge Wind Luftdruck Luftfeuchtigkeit
    00:00 +25°C° 3 mm 1 m/S 730 mmHg 96%
    01:00 +25°C° 3 mm 1 m/S 730 mmHg 97%
    02:00 +25°C° 2 mm 1 m/S 730 mmHg 97%
    03:00 +25°C° 2 mm 2 m/S 729 mmHg 97%
    04:00 +25°C° 2 mm 2 m/S 729 mmHg 97%
    05:00 +25°C° 0.9 mm 2 m/S 730 mmHg 96%
    06:00 +24°C° 0.9 mm 1 m/S 731 mmHg 96%
    07:00 +24°C° 0.9 mm 1 m/S 732 mmHg 96%
    08:00 +25°C° 1.7 mm 1 m/S 732 mmHg 94%
    09:00 +25°C° 1.7 mm 1 m/S 733 mmHg 93%
    10:00 +26°C° 1.7 mm 1 m/S 733 mmHg 92%
    11:00 +27°C° 0.8 mm 2 m/S 732 mmHg 84%
    12:00 +28°C° 0.8 mm 2 m/S 732 mmHg 76%
    13:00 +29°C° 0.8 mm 3 m/S 731 mmHg 68%
    14:00 +30°C° 0 mm 2 m/S 730 mmHg 66%
    15:00 +30°C° 0 mm 2 m/S 730 mmHg 64%
    16:00 +30°C° 0 mm 1 m/S 729 mmHg 63%
    17:00 +29°C° 0 mm 1 m/S 730 mmHg 69%
    18:00 +27°C° 0 mm 1 m/S 730 mmHg 75%
    19:00 +24°C° 0 mm 0 m/S 730 mmHg 82%
    20:00 +25°C° 0 mm 1 m/S 730 mmHg 85%
    21:00 +25°C° 0 mm 1 m/S 730 mmHg 88%
    22:00 +24°C° 0 mm 1 m/S 730 mmHg 91%
    23:00 +24°C° 0 mm 1 m/S 730 mmHg 92%

    24 September, Montag

    Zeit Temperatur Niederschläge Wind Luftdruck Luftfeuchtigkeit
    00:00 +24°C° 0 mm 1 m/S 730 mmHg 93%
    01:00 +24°C° 0 mm 1 m/S 730 mmHg 93%
    02:00 +24°C° 0 mm 1 m/S 730 mmHg 94%
    03:00 +23°C° 0 mm 1 m/S 730 mmHg 95%
    04:00 +23°C° 0 mm 1 m/S 730 mmHg 96%
    05:00 +24°C° 0.1 mm 1 m/S 731 mmHg 94%
    06:00 +24°C° 0.1 mm 1 m/S 731 mmHg 93%
    07:00 +24°C° 0.1 mm 1 m/S 732 mmHg 92%
    08:00 +26°C° 0 mm 1 m/S 732 mmHg 81%
    09:00 +29°C° 0 mm 1 m/S 733 mmHg 70%
    10:00 +31°C° 0 mm 1 m/S 733 mmHg 58%
    11:00 +32°C° 0 mm 1 m/S 732 mmHg 52%
    12:00 +34°C° 0 mm 1 m/S 731 mmHg 46%
    13:00 +36°C° 0 mm 1 m/S 730 mmHg 40%
    14:00 +35°C° 0 mm 1 m/S 729 mmHg 41%
    15:00 +35°C° 0 mm 1 m/S 729 mmHg 43%
    16:00 +34°C° 0 mm 1 m/S 728 mmHg 45%
    17:00 +32°C° 0 mm 1 m/S 729 mmHg 52%
    18:00 +30°C° 0 mm 1 m/S 729 mmHg 60%
    19:00 +28°C° 0 mm 1 m/S 729 mmHg 68%
    20:00 +25°C° 0 mm 0 m/S 730 mmHg 72%
    21:00 +24°C° 0 mm 0 m/S 730 mmHg 75%
    22:00 +24°C° 0 mm 0 m/S 730 mmHg 79%
    23:00 +23°C° 0 mm 0 m/S 730 mmHg 80%

    25 September, Dienstag

    Zeit Temperatur Niederschläge Wind Luftdruck Luftfeuchtigkeit
    00:00 +23°C° 0 mm 0 m/S 730 mmHg 81%
    01:00 +23°C° 0 mm 0 m/S 729 mmHg 83%
    02:00 +23°C° 0 mm 0 m/S 729 mmHg 84%
    03:00 +22°C° 0 mm 0 m/S 729 mmHg 85%
    04:00 +24°C° 0 mm 1 m/S 729 mmHg 85%
    05:00 +23°C° 0 mm 0 m/S 730 mmHg 83%
    06:00 +24°C° 0 mm 0 m/S 731 mmHg 81%
    07:00 +24°C° 0 mm 0 m/S 732 mmHg 78%
    08:00 +29°C° 0.3 mm 1 m/S 732 mmHg 72%
    09:00 +31°C° 0.3 mm 1 m/S 732 mmHg 65%
    10:00 +33°C° 0.3 mm 1 m/S 732 mmHg 59%
    11:00 +32°C° 1.6 mm 1 m/S 731 mmHg 63%
    12:00 +32°C° 1.6 mm 1 m/S 730 mmHg 67%
    13:00 +32°C° 1.6 mm 1 m/S 729 mmHg 71%
    14:00 +30°C° 1.9 mm 1 m/S 729 mmHg 78%
    15:00 +29°C° 1.9 mm 1 m/S 729 mmHg 84%
    16:00 +28°C° 1.9 mm 1 m/S 729 mmHg 91%
    17:00 +27°C° 0.4 mm 1 m/S 729 mmHg 93%
    18:00 +26°C° 0.4 mm 1 m/S 730 mmHg 94%
    19:00 +25°C° 0.4 mm 1 m/S 730 mmHg 95%
    20:00 +25°C° 0 mm 1 m/S 730 mmHg 96%
    21:00 +25°C° 0 mm 1 m/S 730 mmHg 96%
    22:00 +24°C° 0 mm 1 m/S 730 mmHg 96%
    23:00 +24°C° 0 mm 1 m/S 730 mmHg 97%

    26 September, Mittwoch

    Zeit Temperatur Niederschläge Wind Luftdruck Luftfeuchtigkeit
    00:00 +24°C° 0 mm 1 m/S 730 mmHg 97%
    01:00 +24°C° 0 mm 1 m/S 729 mmHg 97%
    02:00 +24°C° 0 mm 1 m/S 729 mmHg 97%
    03:00 +24°C° 0 mm 1 m/S 729 mmHg 98%
    04:00 +22°C° 0 mm 0 m/S 729 mmHg 98%
    05:00 +24°C° 0 mm 1 m/S 730 mmHg 96%
    06:00 +25°C° 0 mm 1 m/S 731 mmHg 94%
    07:00 +25°C° 0 mm 1 m/S 731 mmHg 92%
    08:00 +27°C° 0 mm 1 m/S 732 mmHg 81%
    09:00 +30°C° 0 mm 1 m/S 732 mmHg 69%
    10:00 +32°C° 0 mm 2 m/S 732 mmHg 57%
    11:00 +33°C° 0 mm 1 m/S 731 mmHg 51%
    12:00 +35°C° 0 mm 1 m/S 730 mmHg 46%
    13:00 +36°C° 0 mm 1 m/S 729 mmHg 40%
    14:00 +36°C° 0 mm 1 m/S 728 mmHg 43%
    15:00 +35°C° 0 mm 1 m/S 728 mmHg 46%
    16:00 +34°C° 0 mm 1 m/S 728 mmHg 50%
    17:00 +32°C° 0.1 mm 1 m/S 728 mmHg 57%
    18:00 +30°C° 0.1 mm 1 m/S 729 mmHg 65%
    19:00 +28°C° 0.1 mm 1 m/S 729 mmHg 72%
    20:00 +27°C° 0.6 mm 1 m/S 729 mmHg 77%
    21:00 +27°C° 0.6 mm 1 m/S 730 mmHg 82%
    22:00 +24°C° 0.6 mm 0 m/S 730 mmHg 87%
    23:00 +25°C° 2.9 mm 1 m/S 730 mmHg 90%
    Mehr zeigen